Location: Newark
(45.9167°N, 5.5000°E)
Time: 15:16:26
(UTC+00:00)

N. Korean satellite - Pass Details

Date: 27 January 2020
Orbit: 456 x 506 km, 97.2° (Epoch: 17 February)

Event Time Altitude Azimuth Distance (km) Brightness Sun altitude
Rises 04:51:30 0° 23° (NNE) 2,544 10.5 -23.4°
Reaches altitude 10° 04:53:46 10° 35° (NE) 1,669 9.6 -23.0°
Maximum altitude 04:56:54 28° 96° (E) 945 8.7 -22.5°
Drops below altitude 10° 05:00:03 10° 157° (SSE) 1,680 9.6 -21.9°
Sets 05:02:20 0° 169° (S) 2,565 10.4 -21.5°
